This demonstration page uses our WeatherBlox Daily Observations layout. Learn more.

36.17497, -115.13722

Hourly Observations for June 10, 2015

Temp ( °F °C ) Dew Point ( °F °C ) Humidity (%) Winds ( mph kmh ) Pressure ( in mb ) Visibility ( mi km ) Precip ( " mm )
12:53 am 00:53 Clear 77 25 51 10.6 40 40 ESE 6 9 29.81 1009 10 16.0934 0 0
1:53 am 01:53 Clear 75 23.9 52 11.1 45 45 ESE 6 9 29.8 1009 10 16.0934 0 0
2:53 am 02:53 Clear 74 23.3 53 11.7 48 48 ESE 7 11 29.8 1009 10 16.0934 0 0
3:53 am 03:53 Clear 74 23.3 55 12.8 52 52 ENE 7 11 29.8 1009 10 16.0934 0 0
4:53 am 04:53 Clear 73 22.8 55 12.8 53 53 NE 6 9 29.8 1009 10 16.0934 0 0
5:53 am 05:53 Sunny 72 22.2 56 13.3 57 57 NNE 5 7 29.82 1010 10 16.0934 0 0
6:53 am 06:53 Sunny 72 22.2 57 13.9 59 59 NE 7 11 29.83 1010 10 16.0934 0 0
7:53 am 07:53 Sunny 76 24.4 56 13.3 50 50 ESE 5 7 29.83 1010 10 16.0934 0 0
8:53 am 08:53 Sunny 78 25.6 54 12.2 43 43 ESE 3 6 29.83 1010 10 16.0934 0 0
9:53 am 09:53 Sunny 81 27.2 54 12.2 39 39 SSE 8 13 29.82 1010 10 16.0934 0 0
10:53 am 10:53 Mostly Sunny 83 28.3 52 11.1 34 34 Calm 29.81 1010 10 16.0934 0 0
11:53 am 11:53 Mostly Cloudy 88 31.1 50 10 27 27 ESE 9 15 29.78 1009 10 16.0934 0 0
12:53 pm 12:53 Sunny 90 32.2 48 8.9 24 24 VRB 5 7 29.75 1008 10 16.0934 0 0
1:53 pm 13:53 Mostly Sunny 93 33.9 47 8.3 21 21 SSE 18 30 29.72 1006 10 16.0934 0 0
2:53 pm 14:53 Mostly Sunny 91 32.8 44 6.7 20 20 VRB 3 6 29.69 1005 10 16.0934 0 0
3:53 pm 15:53 Mostly Sunny 94 34.4 42 5.6 17 17 SSW 15 24 29.66 1004 10 16.0934 0 0
4:53 pm 16:53 Sunny 94 34.4 40 4.4 15 15 W 8 13 29.64 1004 10 16.0934 0 0
5:53 pm 17:53 Mostly Cloudy 95 35 35 1.7 12 12 WSW 15 24 29.63 1003 10 16.0934 0 0
6:53 pm 18:53 Sunny 93 33.9 33 0.6 12 12 WSW 10 17 29.63 1004 10 16.0934 0 0
7:53 pm 19:53 Sunny 91 32.8 30 -1.1 11 11 WSW 12 19 29.64 1004 10 16.0934 0 0
8:53 pm 20:53 Clear 89 31.7 34 1.1 14 14 WSW 14 22 29.67 1005 10 16.0934 0 0
9:53 pm 21:53 Clear 88 31.1 38 3.3 17 17 WSW 14 22 29.69 1005 10 16.0934 0 0
10:53 pm 22:53 Clear 84 28.9 42 5.6 23 23 SE 13 20 29.7 1006 10 16.0934 0 0
11:10 pm 23:10 Clear 81 27 48 9 32 32 E 21 33 29.59 1002 10 16.0934 0 0
11:53 pm 23:53 Clear 79 26.1 51 10.6 38 38 ENE 13 20 29.73 1007 10 16.0934 0 0

Powered by AerisWeather